Seward, AK

9:22 PM AKDT on May 25, 2017 (GMT -0800)
Seward

Weather History for PAWD - July, 2013

Change the Weather History Date:

Sunday, July 21, 2013

  Actual Average Record
Temperature  
Mean Temperature 69 °F -  
Max Temperature 78 °F 61 °F 80 °F (1955)
Min Temperature 61 °F 50 °F 43 °F (1971)
Cooling Degree Days 4    
Growing Degree Days 19 (Base 50)    
Moisture  
Dew Point 44 °F    
Average Humidity 40    
Maximum Humidity 52    
Minimum Humidity 30    
Precipitation  
Precipitation 0.00 in - - ()
Sea Level Pressure  
Sea Level Pressure 29.94 in    
Wind  
Wind Speed 12 mph (NNW)    
Max Wind Speed 15 mph    
Max Gust Speed 30 mph    
Visibility 10 miles    
Events      
Averages and records for this station are not official NWS values.
T = Trace of Precipitation, MM = Missing Value Source: NWS Daily Summary

Daily Weather History Graph

Daily Weather History Graph

Search for Another Location

Airport or City:

Trip Planner

Search our weather history database for the weather conditions in past years. The results will help you decide how hot, cold, wet, or windy it might be!

Date:

Astronomy

Jul. 21, 2013 Rise Set
Actual Time 5:13 AM AKDT 10:53 PM AKDT
Civil Twilight 4:01 AM AKDT 12:03 AM AKDT
Nautical Twilight 2:36 AM AKDT 1:31 AM AKDT
Astronomical Twilight Sun does not set Sun does not set
Moon 9:40 PM AKDT (7/21) 4:20 AM AKDT (7/21)
Length of Visible Light 20h 01m
Length of Day
17h 39m
Waxing Gibbous, 99% of the Moon is Illuminated
Jul 21
Waxing Gibbous
Jul 22
Full
Jul 29
Last Quarter
Aug 6
New
Aug 14
First Quarter

Hourly Weather History & Observations

Time (AKDT) Temp. Dew Point Humidity Pressure Visibility Wind Dir Wind Speed Gust Speed Precip Events Conditions
12:53 AM 64.9 °F 44.1 °F 47% 30.01 in 10.0 mi North - - N/A   Clear
1:53 AM 64.9 °F 44.1 °F 47% 30.00 in 10.0 mi North - - N/A   Clear
2:53 AM 64.0 °F 44.1 °F 48% 30.00 in 10.0 mi North 10.4 mph - N/A   Clear
3:53 AM 63.0 °F 44.1 °F 50% 30.00 in 10.0 mi North 9.2 mph - N/A   Clear
4:53 AM 62.1 °F 43.0 °F 50% 29.99 in 10.0 mi North 11.5 mph - N/A   Clear
5:53 AM 61.0 °F 43.0 °F 52% 29.99 in 10.0 mi North 10.4 mph - N/A   Clear
6:53 AM 62.1 °F 42.1 °F 48% 29.98 in 10.0 mi North 12.7 mph 19.6 mph N/A   Clear
7:53 AM 64.0 °F 43.0 °F 46% 29.97 in 10.0 mi NNE 13.8 mph 24.2 mph N/A   Clear
8:53 AM 66.9 °F 44.1 °F 44% 29.95 in 10.0 mi NNE 12.7 mph 18.4 mph N/A   Clear
9:53 AM 70.0 °F 43.0 °F 38% 29.94 in 10.0 mi NW 15.0 mph 25.3 mph N/A   Clear
10:53 AM 70.0 °F 44.1 °F 39% 29.93 in 10.0 mi WNW 15.0 mph 23.0 mph N/A   Clear
11:53 AM 72.0 °F 44.1 °F 37% 29.92 in 10.0 mi WNW 11.5 mph 29.9 mph N/A   Clear
12:53 PM 72.0 °F 45.0 °F 38% 29.91 in 10.0 mi WNW 15.0 mph 28.8 mph N/A   Clear
1:53 PM 73.0 °F 45.0 °F 37% 29.91 in 10.0 mi NW 15.0 mph 28.8 mph N/A   Clear
2:53 PM 73.9 °F 45.0 °F 35% 29.91 in 10.0 mi NW 12.7 mph 24.2 mph N/A   Mostly Cloudy
3:53 PM 75.9 °F 43.0 °F 31% 29.90 in 10.0 mi West 15.0 mph 21.9 mph N/A   Partly Cloudy
4:53 PM 77.0 °F 43.0 °F 30% 29.89 in 10.0 mi West 13.8 mph 21.9 mph N/A   Partly Cloudy
5:53 PM 77.0 °F 43.0 °F 30% 29.88 in 10.0 mi NW 12.7 mph 21.9 mph N/A   Partly Cloudy
6:53 PM 77.0 °F 43.0 °F 30% 29.88 in 10.0 mi NW 12.7 mph 20.7 mph N/A   Clear
7:53 PM 75.9 °F 43.0 °F 31% 29.89 in 10.0 mi NW 12.7 mph 21.9 mph N/A   Clear
8:53 PM 73.9 °F 43.0 °F 33% 29.90 in 10.0 mi NW 12.7 mph 26.5 mph N/A   Clear
9:53 PM 73.0 °F 43.0 °F 34% 29.92 in 10.0 mi NW 6.9 mph 20.7 mph N/A   Scattered Clouds
10:53 PM 72.0 °F 43.0 °F 35% 29.92 in 10.0 mi North 13.8 mph 20.7 mph N/A   Clear
11:53 PM 69.1 °F 44.1 °F 40% 29.94 in 10.0 mi North 6.9 mph - N/A   Clear